Flag for Spain Weather past 2 weeks in Almería, Spain

Now
81 °F

Warm.


Feels Like: 84 °F
Forecast: 74 / 89 °F
Wind: 13 mph from Southwest

Location: Almeria / Aeropuerto

Current Time: Jul 28, 2014 at 6:41:33 PM

Latest Report: Jul 28, 2014 at 6:00 PM


Visibility: N/A

Pressure: 29.85 "Hg

Humidity: 68%

Dew point: 70 °F

Location of AlmeríaLocation

Historic Weather in Almería — Graph

°F

Almería temperature yesterday

Maximum temperature yesterday: 85 °F (at 4:00 PM)
Minimum temperature yesterday: 77 °F (at 4:00 AM)
Average temperature yesterday: 81 °F

Past Weeks' High & Low Weather Summary

 TemperatureHumidityPressure
High100 °F (Jul 16, 3:00 PM)87% (Jul 19, 6:00 AM)30.06 "Hg (Jul 19, 6:00 AM)
Low70 °F (Jul 21, 4:00 AM)20% (Jul 21, 11:00 AM)29.78 "Hg (Jul 24, 8:00 PM)
Average81 °F64%29.94 "Hg
* Reported Jul 13 5:00 PM — Jul 28 5:00 PM, Almería, Weather by CustomWeather, © 2014

Note: Actual official high and low records may vary slightly from our data, if they occured in-between our weather recording intervals... More about our weather records

Advertising

Almería weather history for previous 24 hours

 ConditionsComfort  
Time TempWeatherWind HumidityBarometerVisibility
5:00 PM
Jul 28
82 °FPassing clouds.14 mph68%29.88 "Hg25 mi
4:00 PM81 °FWarm.16 mph70%29.90 "HgN/A
3:00 PM81 °FWarm.12 mph72%29.92 "HgN/A
2:00 PM81 °FPassing clouds.10 mph71%29.94 "Hg19 mi
1:00 PM80 °FWarm.9 mph71%29.96 "HgN/A
12:00 PM80 °FWarm.9 mph74%29.97 "HgN/A
11:00 AM80 °FPassing clouds.10 mph74%29.96 "Hg19 mi
10:00 AM81 °FWarm.6 mph69%29.96 "HgN/A
9:00 AM78 °FWarm.2 mph76%29.96 "HgN/A
8:00 AM76 °FSunny.3 mph82%29.97 "Hg19 mi
7:00 AM75 °FMild.3 mph83%29.96 "HgN/A
6:00 AM75 °FMild.3 mph83%29.96 "HgN/A
5:00 AM76 °FClear.7 mph81%29.96 "Hg19 mi
4:00 AM76 °FMild.3 mph80%29.96 "HgN/A
3:00 AM77 °FWarm.5 mph79%29.98 "HgN/A
1:00 AM78 °FWarm.7 mph77%29.98 "HgN/A
12:00 AM79 °FWarm.9 mph76%29.99 "HgN/A
11:00 PM
Jul 27
79 °FWarm.6 mph74%29.98 "HgN/A
10:00 PM80 °FWarm.6 mph74%29.96 "HgN/A
9:00 PM81 °FWarm.9 mph77%29.96 "HgN/A
8:00 PM82 °FPassing clouds.8 mph73%29.96 "Hg12 mi
7:00 PM83 °FWarm.8 mph71%29.96 "HgN/A
6:00 PM83 °FWarm.9 mph71%29.97 "HgN/A
Weather by CustomWeather, © 2014

See weather overviewHow to use our weather pages